Weather WX

World > North America > United States > North Carolina

Hobucken, North Carolina Regional Weather

Lat: 35.25N, Lon: 76.57W
Wx Zone: NCZ094
Warning FLW WEATHER ALERT - (More Info. Click Here) Warning
Feedback

Hobucken, NC Regional Weather

Expires:201907171700;;203393
ASUS42 KMHX 171626
RWRMHX
WEATHER ROUNDUP FOR EASTERN NORTH CAROLINA
NATIONAL WEATHER SERVICE NEWPORT/MOREHEAD CITY NC
1200 PM EDT WED JUL 17 2019

NOTE: "FAIR" INDICATES FEW OR NO CLOUDS BELOW 12,000 FEET
WITH NO SIGNIFICANT WEATHER AND/OR OBSTRUCTIONS TO VISIBILITY


NCZ045>047-081-094-103-104-171700-
CENTRAL COAST
  
CITY           SKY/WX    TMP DP  RH WIND       PRES   REMARKS
FRISCO         FAIR      89  80  74 SW9       30.10S HX 106           

$$


SKY/WX - Weather  TMP - Temperature  DP - Dew Point  RH - Relative Humidity
WIND - Wind Direction/Speed PRES - Barometric Pressure VSB - Visibility
WCI - Wind Chill Index E13G22 Wind - East Wind 13 mph/Gusts of 22 mph